Tracking 32139 objects as of 15-Nov-2025
HD Live streaming from Space Station
objects crossing your sky now

STARLINK-35625

Track STARLINK-35625 now!
10-day predictions
STARLINK-35625 is classified as:


NORAD ID: 66140
Int'l Code: 2025-237AC
Perigee: 425.0 km
Apogee: 426.3 km
Inclination: 53.2 °
Period: 92.9 minutes
Semi major axis: 6796 km
RCS: Unknown
Launch date: October 22, 2025
Source: United States (US)
Launch site: AIR FORCE WESTERN TEST RANGE (AFWTR)
Your satellite tracking list
Your tracking list is empty




NASA's NSSDC Master Catalog

Two Line Element Set (TLE):
1 66140U 25237AC  25319.50003471 -.00158392  00000-0 -28909-2 0  9996
2 66140  53.1601 215.9013 0000956  91.9704 304.2202 15.49377170  5109
Source of the keplerian elements: AFSPC